TimeCDT,TemperatureF,Dew PointF,Humidity,Sea Level PressureIn,VisibilityMPH,Wind Direction,Wind SpeedMPH,Gust SpeedMPH,PrecipitationIn,Events,Conditions,WindDirDegrees,DateUTC
12:15 AM,53.6,46.4,77,29.33,10.0,East,9.2,-,N/A,,Unknown,90,2013-04-30 05:15:00
12:35 AM,53.6,46.4,77,29.33,10.0,NNW,8.1,-,N/A,,Unknown,330,2013-04-30 05:35:00
12:55 AM,55.4,44.6,67,29.34,10.0,WNW,12.7,-,N/A,,Unknown,300,2013-04-30 05:55:00
1:15 AM,53.6,44.6,72,29.36,10.0,NW,20.7,26.5,N/A,,Unknown,320,2013-04-30 06:15:00
1:35 AM,48.2,46.4,93,29.36,10.0,North,21.9,28.8,N/A,,Unknown,350,2013-04-30 06:35:00
1:55 AM,48.2,46.4,93,29.35,10.0,North,23.0,29.9,N/A,,Unknown,350,2013-04-30 06:55:00
2:15 AM,48.2,46.4,93,29.34,10.0,North,23.0,32.2,N/A,,Unknown,350,2013-04-30 07:15:00
2:35 AM,48.2,48.2,100,29.35,10.0,North,24.2,38.0,N/A,,Unknown,350,2013-04-30 07:35:00
2:55 AM,48.2,48.2,100,29.36,10.0,NNW,23.0,29.9,N/A,,Unknown,330,2013-04-30 07:55:00
3:15 AM,48.2,48.2,100,29.37,10.0,NNW,20.7,26.5,N/A,,Unknown,330,2013-04-30 08:15:00
3:35 AM,46.4,46.4,100,29.38,10.0,NW,19.6,-,N/A,,Unknown,320,2013-04-30 08:35:00
3:55 AM,46.4,46.4,100,29.40,10.0,NNW,18.4,-,N/A,,Unknown,330,2013-04-30 08:55:00
4:15 AM,46.4,46.4,100,29.41,10.0,NNW,16.1,-,N/A,,Unknown,330,2013-04-30 09:15:00
4:55 AM,48.2,48.2,100,29.45,10.0,WNW,19.6,-,N/A,,Unknown,300,2013-04-30 09:55:00
5:15 AM,48.2,48.2,100,29.46,10.0,WNW,16.1,-,N/A,,Unknown,290,2013-04-30 10:15:00
5:35 AM,46.4,46.4,100,29.45,10.0,WNW,12.7,-,0.01,,Unknown,290,2013-04-30 10:35:00
5:55 AM,46.4,46.4,100,29.46,10.0,WNW,11.5,-,0.01,,Unknown,290,2013-04-30 10:55:00
6:15 AM,44.6,44.6,100,29.47,10.0,West,13.8,-,N/A,,Unknown,280,2013-04-30 11:15:00
6:35 AM,44.6,44.6,100,29.48,10.0,West,12.7,-,N/A,,Unknown,270,2013-04-30 11:35:00
6:55 AM,44.6,44.6,100,29.50,10.0,West,12.7,-,N/A,,Unknown,260,2013-04-30 11:55:00
7:15 AM,46.4,44.6,93,29.51,10.0,West,18.4,23.0,N/A,,Unknown,270,2013-04-30 12:15:00
7:35 AM,46.4,44.6,93,29.52,10.0,West,17.3,26.5,N/A,,Unknown,280,2013-04-30 12:35:00
7:55 AM,48.2,41.0,76,29.53,10.0,West,19.6,-,N/A,,Unknown,280,2013-04-30 12:55:00
8:15 AM,48.2,41.0,76,29.54,10.0,West,24.2,29.9,N/A,,Unknown,280,2013-04-30 13:15:00
8:35 AM,50.0,39.2,66,29.54,10.0,West,32.2,38.0,N/A,,Unknown,280,2013-04-30 13:35:00
8:55 AM,50.0,37.4,62,29.55,10.0,West,33.4,40.3,N/A,,Unknown,280,2013-04-30 13:55:00
9:15 AM,50.0,37.4,62,29.57,10.0,West,23.0,40.3,N/A,,Unknown,280,2013-04-30 14:15:00
9:35 AM,51.8,37.4,58,29.58,10.0,West,21.9,-,N/A,,Unknown,280,2013-04-30 14:35:00
9:55 AM,51.8,35.6,54,29.60,10.0,West,21.9,25.3,N/A,,Unknown,270,2013-04-30 14:55:00
10:15 AM,51.8,35.6,54,29.61,10.0,West,24.2,29.9,N/A,,Unknown,270,2013-04-30 15:15:00
10:35 AM,51.8,33.8,50,29.61,10.0,West,31.1,35.7,N/A,,Unknown,270,2013-04-30 15:35:00
10:55 AM,50.0,35.6,58,29.61,10.0,West,32.2,39.1,N/A,,Unknown,270,2013-04-30 15:55:00
11:15 AM,51.8,35.6,54,29.63,10.0,West,27.6,38.0,N/A,,Unknown,270,2013-04-30 16:15:00
11:35 AM,51.8,35.6,54,29.64,10.0,West,31.1,42.6,N/A,,Unknown,270,2013-04-30 16:35:00
11:55 AM,53.6,35.6,51,29.65,10.0,West,28.8,39.1,N/A,,Unknown,280,2013-04-30 16:55:00
12:15 PM,53.6,35.6,51,29.66,10.0,West,31.1,41.4,N/A,,Unknown,270,2013-04-30 17:15:00
12:35 PM,53.6,35.6,51,29.68,10.0,West,26.5,36.8,N/A,,Unknown,270,2013-04-30 17:35:00
12:55 PM,53.6,37.4,54,29.68,10.0,West,26.5,35.7,N/A,,Unknown,280,2013-04-30 17:55:00
1:15 PM,55.4,37.4,51,29.69,10.0,West,23.0,32.2,N/A,,Unknown,260,2013-04-30 18:15:00
1:35 PM,55.4,35.6,47,29.69,10.0,West,26.5,36.8,N/A,,Unknown,260,2013-04-30 18:35:00
2:15 PM,55.4,33.8,44,29.71,10.0,West,25.3,36.8,N/A,,Unknown,270,2013-04-30 19:15:00
2:35 PM,55.4,33.8,44,29.72,10.0,West,21.9,29.9,N/A,,Unknown,280,2013-04-30 19:35:00
2:55 PM,53.6,33.8,47,29.73,10.0,West,21.9,34.5,N/A,,Unknown,280,2013-04-30 19:55:00
3:15 PM,55.4,32.0,41,29.72,10.0,WNW,26.5,33.4,N/A,,Unknown,290,2013-04-30 20:15:00
3:35 PM,55.4,32.0,41,29.72,10.0,WNW,29.9,39.1,N/A,,Unknown,300,2013-04-30 20:35:00
3:55 PM,53.6,32.0,44,29.74,10.0,WNW,26.5,34.5,N/A,,Unknown,290,2013-04-30 20:55:00
4:15 PM,55.4,32.0,41,29.75,10.0,West,27.6,38.0,N/A,,Unknown,280,2013-04-30 21:15:00
4:35 PM,53.6,32.0,44,29.77,10.0,WNW,25.3,35.7,N/A,,Unknown,290,2013-04-30 21:35:00
4:55 PM,53.6,32.0,44,29.78,10.0,WNW,26.5,31.1,N/A,,Unknown,290,2013-04-30 21:55:00
5:15 PM,51.8,32.0,47,29.80,10.0,West,24.2,33.4,N/A,,Unknown,280,2013-04-30 22:15:00
5:35 PM,50.0,32.0,50,29.82,10.0,WNW,26.5,32.2,N/A,,Unknown,290,2013-04-30 22:35:00
5:55 PM,50.0,32.0,50,29.85,10.0,West,21.9,28.8,N/A,,Unknown,280,2013-04-30 22:55:00
6:15 PM,50.0,32.0,50,29.87,10.0,WNW,23.0,27.6,N/A,,Unknown,290,2013-04-30 23:15:00
6:35 PM,50.0,32.0,50,29.88,10.0,West,24.2,28.8,N/A,,Unknown,280,2013-04-30 23:35:00
6:55 PM,48.2,32.0,54,29.89,10.0,West,20.7,26.5,N/A,,Unknown,280,2013-04-30 23:55:00
7:15 PM,48.2,32.0,54,29.90,10.0,WNW,16.1,25.3,N/A,,Unknown,300,2013-05-01 00:15:00
7:35 PM,46.4,32.0,57,29.92,10.0,WNW,16.1,-,N/A,,Unknown,300,2013-05-01 00:35:00
7:55 PM,46.4,32.0,57,29.94,10.0,NW,18.4,23.0,N/A,,Unknown,310,2013-05-01 00:55:00
8:15 PM,44.6,30.2,57,29.96,10.0,NW,21.9,26.5,N/A,,Unknown,320,2013-05-01 01:15:00
8:35 PM,41.0,28.4,61,29.97,10.0,NW,19.6,25.3,N/A,,Unknown,310,2013-05-01 01:35:00
8:55 PM,41.0,28.4,61,29.98,10.0,NW,19.6,25.3,N/A,,Unknown,310,2013-05-01 01:55:00
9:15 PM,39.2,28.4,65,29.99,10.0,WNW,16.1,20.7,N/A,,Unknown,300,2013-05-01 02:15:00
9:35 PM,39.2,28.4,65,30.01,10.0,NW,18.4,21.9,N/A,,Unknown,310,2013-05-01 02:35:00
9:55 PM,37.4,28.4,70,30.04,10.0,NW,16.1,24.2,N/A,,Unknown,310,2013-05-01 02:55:00
10:35 PM,37.4,26.6,65,30.07,10.0,NW,19.6,24.2,N/A,,Unknown,310,2013-05-01 03:35:00
10:55 PM,35.6,26.6,70,30.08,10.0,NW,23.0,29.9,N/A,,Unknown,310,2013-05-01 03:55:00
11:15 PM,35.6,26.6,70,30.10,10.0,NW,13.8,23.0,N/A,,Unknown,310,2013-05-01 04:15:00
11:35 PM,35.6,24.8,65,30.09,10.0,NW,18.4,26.5,N/A,,Unknown,310,2013-05-01 04:35:00
11:55 PM,35.6,24.8,65,30.10,10.0,NW,23.0,-,N/A,,Unknown,310,2013-05-01 04:55:00